This demonstration page uses our WeatherBlox Daily Observations layout. Learn more.

Left ArrowRight Arrow

41.55636, -103.73856

Hourly Observations for December 5, 2020

Temp ( °F °C ) Dew Point ( °F °C ) Humidity (%) Winds ( mph kmh ) Pressure ( in mb ) Visibility ( mi km ) Precip ( " mm )
12:58 am 00:58 Clear 35 1.8 11 -11.7 36 36 WNW 13 20 30.39 1029 10 16 0.00 0.00
1:58 am 01:58 Clear 29 -1.9 11 -11.4 49 49 SW 7 11 30.42 1030 10 16 0.00 0.00
2:58 am 02:58 Clear 29 -1.7 12 -11.3 48 48 SW 7 11 30.43 1030 10 16 0.00 0.00
3:58 am 03:58 Clear 29 -1.6 12 -11.3 48 48 SW 7 11 30.43 1030 10 16 0.00 0.00
4:58 am 04:58 Clear 31 -0.6 11 -11.7 43 43 W 9 15 30.45 1031 10 16 0.00 0.00
5:58 am 05:58 Clear 29 -1.7 11 -11.7 47 47 W 9 15 30.48 1032 10 16 0.00 0.00
6:58 am 06:58 Clear 29 -1.6 11 -11.4 48 48 WSW 8 13 30.50 1033 10 16 0.00 0.00
7:58 am 07:58 Sunny 32 0 12 -11.3 43 43 W 7 11 30.50 1033 10 16 0.00 0.00
8:58 am 08:58 Sunny 35 1.5 15 -9.7 44 44 SSW 3 6 30.50 1033 10 16 0.00 0.00
9:58 am 09:58 Sunny 41 5.2 13 -10.7 31 31 NW 12 19 30.49 1033 10 16 0.00 0.00
10:58 am 10:58 Sunny 46 7.9 14 -10.2 27 27 WNW 12 19 30.44 1031 10 16 0.00 0.00
11:58 am 11:58 Sunny 50 10.1 15 -9.4 25 25 WNW 10 17 30.37 1029 10 16 0.00 0.00
12:58 pm 12:58 Sunny 52 11 15 -9.6 23 23 NW 17 28 30.34 1028 10 16 0.00 0.00
1:58 pm 13:58 Sunny 54 12 14 -9.9 21 21 NW 13 20 30.35 1028 10 16 0.00 0.00
2:58 pm 14:58 Sunny 53 11.8 13 -10.4 20 20 NNW 9 15 30.33 1027 10 16 0.00 0.00
3:58 pm 15:58 Sunny 50 10.1 13 -10.6 22 22 NW 6 9 30.32 1027 10 16 0.00 0.00
4:58 pm 16:58 Clear 46 7.5 12 -10.9 26 26 SSW 3 6 30.32 1027 10 16 0.00 0.00
5:58 pm 17:58 Clear 39 4.1 12 -10.9 33 33 SW 7 11 30.37 1028 10 16 0.00 0.00
6:58 pm 18:58 Mostly Clear 41 5.2 13 -10.7 31 31 SSW 5 7 30.35 1028 10 16 0.00 0.00
7:58 pm 19:58 Mostly Cloudy 39 4.1 12 -11 33 33 SW 3 6 30.36 1028 10 16 0.00 0.00
8:58 pm 20:58 Mostly Clear 31 -0.5 13 -10.7 46 46 WNW 5 7 30.36 1028 10 16 0.00 0.00
9:58 pm 21:58 Clear 26 -3.4 13 -10.7 57 57 WNW 3 6 30.36 1028 10 16 0.00 0.00
10:58 pm 22:58 Clear 24 -4.6 12 -11.3 60 60 W 5 7 30.36 1028 10 16 0.00 0.00
11:58 pm 23:58 Clear 26 -3.5 12 -11 56 56 SW 7 11 30.30 1026 10 16 0.00 0.00

Powered by AerisWeather